Preview of NWS' New Version of Forecast
This preview is not operational and should not be used for support decisions.

Regional Weather Roundup (RWR)

Issued by Philadelphia/Mt Holly (PHI)

                            
000
ASUS41 KPHI 171112
RWRPHI

REGIONAL WEATHER ROUNDUP
NATIONAL WEATHER SERVICE MOUNT HOLLY NJ
600 AM EST THU JAN 17 2019

NOTE:  "FAIR" INDICATES FEW OR NO CLOUDS BELOW 12,000 FEET WITH NO
SIGNIFICANT WEATHER AND/OR OBSTRUCTIONS TO VISIBILITY.

 * = STATION DOES NOT REPORT PRECIPITATION (E.G. RAIN, SNOW, ETC.) 
        OR FOG.

NJZ015>026-171200-
SOUTHERN NEW JERSEY
  
CITY           SKY/WX    TMP DP  RH WIND       PRES   REMARKS
POMONA         FAIR      24  19  81 N6        30.34R WCI  17          
WILDWOOD*      FAIR      32  20  61 N6        30.34R WCI  26          
MILLVILLE      FAIR      26  17  68 N3        30.33R                  
WRIGHTSTOWN    FAIR      26  14  60 N9        30.32R WCI  17          
MOUNT HOLLY    FAIR      28  15  58 N8        30.35R WCI  20          
TRENTON        FAIR      27  10  49 NW7       30.34R WCI  19          

$$
NJZ001>014-171200-
NORTHERN NEW JERSEY
  
CITY           SKY/WX    TMP DP  RH WIND       PRES   REMARKS
SUSSEX         FAIR      20   9  62 CALM      30.33R                  
ANDOVER*         N/A     20   7  57 N7        30.33R WCI  11          
MORRISTOWN     FAIR      23  10  58 CALM      30.35R                  
NEWARK         MOCLDY    25   5  42 N8        30.35R WCI  16          
TETERBORO      FAIR      24  10  55 N13G21    30.35R WCI  12          
CALDWELL       FAIR      22   8  55 VRB5      30.36R WCI  16          
SOMERVILLE     FAIR      24   7  48 N6        30.34R WCI  17          
ALLAIRE*       FAIR      27  10  49 NW8       30.35R WCI  19          
TOMS RIVER*    FAIR      27  16  63 N7        30.35R WCI  19          

$$
PAZ043-044-047-054-055-060>062-066>071-171200-
EASTERN PENNSYLVANIA
  
CITY           SKY/WX    TMP DP  RH WIND       PRES   REMARKS
PHILADELPHIA   MOCLDY    29  15  56 N9        30.36R WCI  20          
NORTH PHILA    FAIR      29  13  51 N9        30.36R WCI  20          
BLUE BELL*     FAIR      27  14  59 CALM      30.36R                  
DOYLESTOWN     FAIR      24  10  55 N6        30.33R WCI  17          
QUAKERTOWN*    CLEAR     23  10  58 VRB5      30.34R WCI  17          
PERKASIE*      FAIR      23  10  58 N5        30.34R WCI  17          
POTTSTOWN      FAIR      24  12  60 N7        30.35R WCI  16          
LANCASTER      FAIR      27  17  66 CALM      30.33R                  
COATESVILLE    FAIR      27  16  63 CALM      30.33R                  
READING        FAIR      25  16  68 NE6       30.33R WCI  18          
ALLENTOWN      FAIR      24   8  50 N5        30.35R WCI  18          
MOUNT POCONO   FAIR      13   7  77 NW12      30.22R WCI  -1          
HAZLETON       FAIR      18   9  68 N3        30.28S                  
LEHIGHTON      FAIR      23  10  58 CALM      30.35R                  
WILKES BARRE   FAIR      17   8  67 CALM      30.32R                  

$$
DEZALL-MDZ008-012-015-019-020-171200-
DELAWARE AND EASTERN MARYLAND
  
CITY           SKY/WX    TMP DP  RH WIND       PRES   REMARKS
WILMINGTON     FAIR      29  17  61 N5        30.35R WCI  24          
DOVER          FAIR      31  21  68 N7        30.33R WCI  24          
GEORGETOWN     FAIR      31  25  78 CALM      30.32S                  
EASTON         PTCLDY    34  27  75 CALM      30.35F                  
ABERDEEN       PTCLDY    30  18  59 CALM      30.34                   
PATUXENT       FAIR      27  26  96 SW3       30.32                   
OCEAN CITY     FAIR      24  22  91 CALM      30.33R                  
WALLOPS ISLAND CLOUDY    27  24  89 CALM      30.33S                  
CAMBRIDGE      CLEAR     27  27 100 CALM      30.33R                  
SALISBURY      FAIR      25  25 100 CALM      30.32S                  

$$
PAZ001-021-NYZ056-072-MDZ011-DCZ001-171200-
OTHER NEARBY LOCATIONS
  
CITY           SKY/WX    TMP DP  RH WIND       PRES   REMARKS
HARRISBURG     CLOUDY    29  15  56 NE5       30.33R WCI  24          
STATE COLLEGE  CLEAR     19  16  86 CALM      30.28R                  
WILLIAMSPORT   FAIR      20  11  68 W3        30.35R                  
BINGHAMTON     FAIR      10   6  84 NW5       30.26R WCI   2          
NEW YORK CITY  FAIR      25   8  48 MISG      30.36R                  
BALTIMORE      CLOUDY    34  26  72 CALM      30.31S                  
WASHINGTON DC  MOCLDY    35  23  61 N5        30.33S WCI  31          

$$